Home > Weather > Mostar > Past weeks

Flag for Bosnia-Herzegovina Past Weather in Mostar, Bosnia-Herzegovina — Yesterday and Last 2 Weeks

Now
61 °F

Passing clouds.


Feels Like: 61 °F
Forecast: 55 / 74 °F
Wind: 2 mph from Southwest

Location: Mostar

Current Time: Jun 1, 2016 at 5:39:52 AM

Latest Report: Jun 1, 2016 at 5:00 AM


Visibility: N/A

Pressure: 29.95 "Hg

Humidity: 83%

Dew Point: 55 °F

Location of MostarLocation

Past Weather in Mostar — Graph

°F

Mostar Temperature Yesterday

Maximum temperature yesterday: 82 °F (at 2:30 PM)
Minimum temperature yesterday: 55 °F (at 5:00 AM)
Average temperature yesterday: 71 °F

High & Low Weather Summary for the Past Weeks

 TemperatureHumidityPressure
High86 °F (May 28, 2:00 PM)100% (May 20, 12:00 AM)30.04 "Hg (May 20, 12:00 AM)
Low45 °F (May 19, 6:30 AM)27% (May 17, 2:00 PM)29.71 "Hg (May 24, 3:00 AM)
Average65 °F65%29.92 "Hg
* Reported May 17 4:00 AM — Jun 1 4:00 AM, Mostar, Weather by CustomWeather, © 2016

Note: Actual official high and low records may vary slightly from our data, if they occured in-between our weather recording intervals... More about our weather records

Advertising

Mostar Weather History for the Previous 24 Hours

Scroll right to see more
 ConditionsComfort  
Time TempWeatherWind HumidityBarometerVisibility
4:00 AM
Wed, Jun 1
59 °FPassing clouds.2 mph88%29.95 "HgN/A
3:00 AM59 °FPassing clouds.2 mph88%29.98 "HgN/A
2:00 AM63 °FPassing clouds.2 mph77%29.98 "HgN/A
1:00 AM63 °FPassing clouds.2 mph77%29.98 "HgN/A
12:00 AM63 °FPassing clouds.2 mph77%29.98 "HgN/A
11:00 PM
Tue, May 31
64 °FPassing clouds.2 mph68%29.98 "HgN/A
10:00 PM66 °FPassing clouds.2 mph68%29.98 "HgN/A
9:00 PM72 °FPassing clouds.6 mph53%29.95 "HgN/A
8:00 PM73 °FPassing clouds.5 mph50%29.95 "HgN/A
7:00 PM77 °FPassing clouds.7 mph44%29.92 "HgN/A
6:30 PM79 °FPassing clouds.6 mph42%29.92 "HgN/A
6:00 PM79 °FPassing clouds.7 mph39%29.92 "HgN/A
5:30 PM81 °FPassing clouds.10 mph39%29.92 "HgN/A
5:00 PM81 °FPassing clouds.9 mph39%29.92 "HgN/A
4:30 PM81 °FPassing clouds.9 mph39%29.92 "HgN/A
4:00 PM81 °FPassing clouds.10 mph37%29.92 "HgN/A
3:30 PM82 °FPassing clouds.9 mph37%29.92 "HgN/A
3:00 PM81 °FPassing clouds.9 mph39%29.92 "HgN/A
2:30 PM82 °FScattered clouds.8 mph30%29.92 "HgN/A
2:00 PM79 °FScattered clouds.7 mph37%29.92 "HgN/A
1:30 PM81 °FPassing clouds.7 mph37%29.95 "HgN/A
1:00 PM81 °FPassing clouds.8 mph34%29.95 "HgN/A
12:30 PM81 °FPassing clouds.6 mph37%29.95 "HgN/A
12:00 PM79 °FPassing clouds.5 mph37%29.95 "HgN/A
11:30 AM77 °FPassing clouds.5 mph36%29.95 "HgN/A
11:00 AM75 °FPassing clouds.3 mph54%29.95 "HgN/A
10:30 AM73 °FPassing clouds.2 mph57%29.95 "HgN/A
10:00 AM72 °FPassing clouds.2 mph61%29.95 "HgN/A
9:30 AM70 °FPassing clouds.2 mph64%29.95 "HgN/A
9:00 AM68 °FPassing clouds.2 mph64%29.95 "HgN/A
8:30 AM68 °FPassing clouds.2 mph69%29.95 "HgN/A
8:00 AM64 °FSunny.2 mph73%29.95 "Hg10 mi
7:30 AM63 °FPassing clouds.5 mph77%29.95 "HgN/A
7:00 AM61 °FSunny.1 mph83%29.95 "Hg10 mi
6:30 AM57 °FSunny.3 mph88%29.95 "Hg10 mi
6:00 AM57 °FClear.2 mph88%29.95 "Hg10 mi
5:30 AM57 °FClear.1 mph88%29.95 "Hg10 mi
5:00 AM55 °FClear.3 mph94%29.95 "Hg10 mi
Weather by CustomWeather, © 2016

See weather overviewHow to use our weather pages